SWR40 LSZH-KLAX

Flight info

Callsign SWR40
Flight time N/A
Altitude 32000
Route VEBIT T10 TORPA DCT REKLA DCT RLP DCT ROTSI DCT AMODO DCT COHPA UM729 RESMI DCT TABOV DCT PIGOP DCT DITAL UN491 LGL UN502 ARGED DCT SENLO DCT JSY DCT LIZAD DCT LULOX DCT UNLID DCT TOBOR/M083F340 DCT 54N020W 56N030W 58N040W 58N050W DCT AVUTI DCT PRAWN/N0476F340 DCT MCKEE DCT VIRSO/N0477F360 DCT GABOV DCT HML DCT DIK DCT BOY/N0475F380 DCT BERYL DCT LAKRR Q73 HAKMN DCT SHTNR ANJLL4
Aircraft B77W/H-SDE1E2E3FGHIJ2J3J4J5M1RWXY/LB1D1

Departure

Time N/A
Airport Zürich Airport (LSZH)

Arrival

Time 2026-04-25 15:25
Airport Los Angeles International Airport (KLAX)
Time Latitude Longitude Altitude Speed Heading
2026-04-25 14:31 37.13067 -113.77306 35913 ft 421 kts 208°
2026-04-25 14:31 37.10329 -113.78668 35904 ft 420 kts 208°
2026-04-25 14:31 37.04861 -113.81387 35891 ft 422 kts 208°
2026-04-25 14:32 36.99401 -113.84096 35879 ft 421 kts 208°
2026-04-25 14:32 36.93914 -113.86816 35860 ft 421 kts 208°
2026-04-25 14:33 36.88427 -113.89531 35857 ft 420 kts 208°
2026-04-25 14:33 36.82981 -113.92221 35851 ft 419 kts 208°
2026-04-25 14:34 36.77546 -113.94902 35848 ft 419 kts 208°
2026-04-25 14:34 36.72061 -113.97604 35838 ft 420 kts 208°
2026-04-25 14:35 36.66621 -114.00280 35841 ft 421 kts 208°
2026-04-25 14:35 36.61176 -114.02953 35842 ft 418 kts 208°
2026-04-25 14:36 36.55750 -114.05614 35841 ft 418 kts 208°
2026-04-25 14:36 36.50290 -114.08287 35846 ft 420 kts 208°
2026-04-25 14:37 36.44827 -114.10957 35851 ft 419 kts 208°
2026-04-25 14:37 36.39385 -114.13613 35846 ft 419 kts 208°
2026-04-25 14:38 36.33965 -114.16254 35850 ft 418 kts 208°
2026-04-25 14:38 36.28518 -114.18905 35852 ft 418 kts 208°
2026-04-25 14:39 36.23099 -114.21537 35853 ft 416 kts 208°
2026-04-25 14:39 36.17671 -114.24171 35852 ft 417 kts 208°
2026-04-25 14:40 36.12261 -114.26791 35840 ft 416 kts 209°
2026-04-25 14:40 36.07377 -114.30460 35831 ft 401 kts 226°
2026-04-25 14:41 36.03591 -114.35448 35826 ft 397 kts 232°
2026-04-25 14:41 36.01750 -114.38004 36095 ft 396 kts 232°
2026-04-25 14:41 35.99914 -114.40552 35844 ft 395 kts 232°
2026-04-25 14:42 35.97478 -114.43927 35823 ft 394 kts 232°
2026-04-25 14:42 35.94436 -114.48135 35562 ft 395 kts 232°
2026-04-25 14:42 35.92616 -114.50648 35752 ft 395 kts 232°
2026-04-25 14:43 35.90754 -114.53221 36057 ft 399 kts 232°
2026-04-25 14:43 35.88890 -114.55790 35839 ft 395 kts 232°
2026-04-25 14:43 35.85218 -114.60847 35822 ft 395 kts 232°
2026-04-25 14:44 35.81550 -114.65892 35818 ft 396 kts 231°
2026-04-25 14:44 35.78148 -114.70564 35826 ft 395 kts 231°
2026-04-25 14:45 35.74471 -114.75605 35826 ft 395 kts 231°
2026-04-25 14:45 35.70796 -114.80637 35830 ft 394 kts 231°
2026-04-25 14:46 35.67087 -114.85707 35830 ft 393 kts 231°
2026-04-25 14:46 35.63406 -114.90744 35830 ft 394 kts 232°
2026-04-25 14:47 35.60350 -114.94925 35836 ft 393 kts 231°
2026-04-25 14:47 35.56047 -115.00803 35845 ft 394 kts 231°
2026-04-25 14:48 35.52374 -115.05811 35848 ft 394 kts 231°
2026-04-25 14:48 35.48665 -115.10783 35853 ft 394 kts 230°
2026-04-25 14:49 35.44896 -115.15695 35858 ft 394 kts 230°
2026-04-25 14:49 35.41112 -115.20627 35872 ft 394 kts 230°
2026-04-25 14:50 35.37365 -115.25507 35870 ft 392 kts 230°
2026-04-25 14:50 35.33586 -115.30426 35870 ft 396 kts 230°
2026-04-25 14:51 35.29780 -115.35372 35884 ft 393 kts 230°
2026-04-25 14:51 35.26003 -115.40275 35881 ft 395 kts 230°
2026-04-25 14:52 35.22211 -115.45189 35876 ft 394 kts 230°
2026-04-25 14:52 35.19059 -115.49270 35879 ft 394 kts 230°
2026-04-25 14:53 35.14675 -115.54936 35874 ft 394 kts 230°
2026-04-25 14:53 35.10873 -115.59833 35866 ft 394 kts 230°
2026-04-25 14:54 35.07066 -115.64704 35859 ft 395 kts 230°
2026-04-25 14:54 35.03283 -115.69536 35864 ft 395 kts 229°
2026-04-25 14:55 34.99449 -115.74428 35859 ft 395 kts 229°
2026-04-25 14:55 34.95642 -115.79279 35863 ft 394 kts 229°
2026-04-25 14:56 34.91852 -115.84101 35861 ft 395 kts 229°
2026-04-25 14:56 34.88027 -115.88961 35869 ft 395 kts 230°
2026-04-25 14:57 34.84216 -115.93797 35872 ft 393 kts 230°
2026-04-25 14:57 34.80402 -115.98628 35871 ft 393 kts 229°
2026-04-25 14:58 34.76602 -116.03439 35892 ft 393 kts 230°
2026-04-25 14:58 34.72794 -116.08295 35888 ft 391 kts 230°
2026-04-25 14:59 34.69020 -116.13103 35891 ft 391 kts 230°
2026-04-25 14:59 34.65277 -116.17862 35614 ft 385 kts 230°
2026-04-25 15:00 34.63401 -116.20244 34756 ft 389 kts 230°
2026-04-25 15:00 34.61535 -116.22613 34022 ft 390 kts 230°
2026-04-25 15:00 34.59662 -116.24990 33277 ft 390 kts 229°
2026-04-25 15:00 34.57760 -116.27400 32489 ft 391 kts 230°
2026-04-25 15:01 34.55883 -116.29778 31699 ft 393 kts 229°
2026-04-25 15:01 34.53976 -116.32192 30903 ft 394 kts 229°
2026-04-25 15:01 34.52082 -116.34587 30299 ft 391 kts 229°
2026-04-25 15:01 34.50209 -116.36952 29856 ft 384 kts 229°
2026-04-25 15:02 34.48364 -116.39281 29361 ft 379 kts 229°
2026-04-25 15:02 34.46530 -116.41595 28857 ft 375 kts 229°
2026-04-25 15:02 34.44739 -116.43855 28357 ft 370 kts 229°
2026-04-25 15:02 34.42960 -116.46099 27879 ft 366 kts 230°
2026-04-25 15:03 34.41431 -116.48511 27377 ft 359 kts 240°
2026-04-25 15:03 34.40257 -116.51185 26899 ft 355 kts 244°
2026-04-25 15:03 34.39156 -116.53853 26416 ft 351 kts 244°
2026-04-25 15:03 34.38076 -116.56477 25939 ft 351 kts 244°
2026-04-25 15:04 34.36965 -116.59176 25451 ft 370 kts 244°
2026-04-25 15:04 34.35802 -116.61996 24934 ft 370 kts 244°
2026-04-25 15:04 34.34668 -116.64745 24429 ft 366 kts 244°
2026-04-25 15:04 34.33528 -116.67504 23945 ft 362 kts 243°
2026-04-25 15:05 34.32446 -116.70166 23508 ft 357 kts 244°
2026-04-25 15:05 34.31351 -116.72903 23096 ft 352 kts 244°
2026-04-25 15:05 34.30284 -116.75564 22684 ft 347 kts 244°
2026-04-25 15:06 34.28185 -116.80786 21856 ft 344 kts 244°
2026-04-25 15:06 34.27136 -116.83390 21428 ft 343 kts 244°
2026-04-25 15:06 34.26100 -116.85960 21009 ft 341 kts 244°
2026-04-25 15:06 34.25050 -116.88561 20587 ft 339 kts 244°
2026-04-25 15:07 34.24010 -116.91133 20183 ft 340 kts 244°
2026-04-25 15:07 34.22982 -116.93677 19757 ft 339 kts 244°
2026-04-25 15:07 34.21952 -116.96223 19339 ft 338 kts 244°
2026-04-25 15:07 34.20989 -116.98804 18907 ft 337 kts 250°
2026-04-25 15:08 34.20246 -117.01485 18577 ft 335 kts 251°
2026-04-25 15:08 34.19525 -117.04166 18278 ft 335 kts 252°
2026-04-25 15:08 34.18805 -117.06840 17966 ft 333 kts 252°
2026-04-25 15:08 34.18089 -117.09489 17652 ft 332 kts 252°
2026-04-25 15:09 34.17377 -117.12118 17334 ft 331 kts 252°
2026-04-25 15:09 34.16662 -117.14757 17015 ft 328 kts 252°
2026-04-25 15:09 34.15223 -117.20004 16319 ft 327 kts 252°
2026-04-25 15:10 34.14508 -117.22601 15957 ft 324 kts 252°
2026-04-25 15:10 34.13807 -117.25149 15620 ft 324 kts 252°
2026-04-25 15:10 34.12392 -117.30281 14916 ft 321 kts 252°
2026-04-25 15:11 34.11687 -117.32838 14568 ft 320 kts 252°
2026-04-25 15:11 34.10985 -117.35379 14214 ft 318 kts 252°
2026-04-25 15:11 34.10282 -117.37937 13856 ft 317 kts 252°
2026-04-25 15:12 34.09028 -117.42993 13074 ft 310 kts 253°
2026-04-25 15:12 34.08414 -117.45470 12680 ft 307 kts 253°
2026-04-25 15:12 34.07797 -117.47939 12287 ft 304 kts 253°
2026-04-25 15:12 34.07597 -117.48740 12156 ft 303 kts 253°
2026-04-25 15:13 34.06332 -117.52633 11638 ft 295 kts 248°
2026-04-25 15:13 34.04723 -117.57078 11184 ft 280 kts 248°
2026-04-25 15:13 34.03947 -117.59227 10952 ft 274 kts 248°
2026-04-25 15:14 34.03204 -117.61290 10728 ft 267 kts 248°
2026-04-25 15:14 34.02463 -117.63348 10507 ft 261 kts 248°
2026-04-25 15:14 34.01752 -117.65319 10292 ft 258 kts 247°
2026-04-25 15:14 34.01027 -117.67333 10077 ft 258 kts 248°
2026-04-25 15:15 34.00583 -117.69416 9838 ft 257 kts 261°
2026-04-25 15:15 34.00360 -117.71561 9511 ft 257 kts 263°
2026-04-25 15:15 34.00156 -117.73714 9186 ft 256 kts 263°
2026-04-25 15:15 33.99952 -117.75849 8873 ft 255 kts 263°
2026-04-25 15:16 33.99744 -117.77985 8561 ft 254 kts 263°
2026-04-25 15:16 33.99538 -117.80085 8248 ft 255 kts 263°
2026-04-25 15:16 33.99119 -117.84368 7642 ft 254 kts 263°
2026-04-25 15:17 33.98707 -117.88607 7110 ft 256 kts 263°
2026-04-25 15:17 33.98499 -117.90745 6838 ft 255 kts 263°
2026-04-25 15:17 33.98287 -117.92897 6600 ft 254 kts 263°
2026-04-25 15:18 33.98079 -117.95004 6371 ft 256 kts 263°
2026-04-25 15:18 33.97641 -117.99277 5890 ft 256 kts 262°
2026-04-25 15:18 33.97415 -118.01399 5650 ft 256 kts 262°
2026-04-25 15:19 33.97194 -118.03554 5401 ft 255 kts 262°
2026-04-25 15:19 33.97123 -118.04255 5320 ft 255 kts 262°
2026-04-25 15:19 33.96768 -118.07800 4918 ft 255 kts 262°
2026-04-25 15:19 33.96556 -118.09950 4602 ft 255 kts 262°
2026-04-25 15:20 33.96346 -118.12077 4267 ft 256 kts 262°
2026-04-25 15:20 33.96133 -118.14217 3955 ft 256 kts 262°
2026-04-25 15:20 33.95925 -118.16327 3624 ft 251 kts 262°
2026-04-25 15:20 33.95726 -118.18388 3307 ft 243 kts 262°
2026-04-25 15:21 33.95538 -118.20361 3010 ft 236 kts 262°
2026-04-25 15:21 33.95350 -118.22316 2711 ft 229 kts 262°
2026-04-25 15:21 33.95167 -118.24185 2426 ft 220 kts 262°
2026-04-25 15:21 33.94994 -118.25940 2155 ft 201 kts 262°
2026-04-25 15:22 33.94828 -118.27603 1912 ft 193 kts 262°
2026-04-25 15:22 33.94671 -118.29156 1661 ft 181 kts 262°
2026-04-25 15:22 33.94521 -118.30621 1423 ft 172 kts 262°
2026-04-25 15:22 33.94382 -118.31987 1195 ft 154 kts 262°
2026-04-25 15:23 33.94255 -118.33230 991 ft 147 kts 262°
2026-04-25 15:23 33.94130 -118.34442 787 ft 144 kts 262°
2026-04-25 15:23 33.94009 -118.35648 587 ft 143 kts 262°
2026-04-25 15:23 33.93885 -118.36829 386 ft 143 kts 261°
2026-04-25 15:24 33.93760 -118.38021 183 ft 140 kts 262°
2026-04-25 15:24 33.93647 -118.39127 117 ft 120 kts 262°
2026-04-25 15:24 33.93562 -118.39985 127 ft 85 kts 263°
2026-04-25 15:24 33.93538 -118.40206 131 ft 74 kts 263°
2026-04-25 15:25 33.93477 -118.40871 140 ft 29 kts 269°
2026-04-25 15:25 33.93498 -118.41053 140 ft 13 kts 283°
2026-04-25 15:25 33.93525 -118.41138 140 ft 3 kts 295°
2026-04-25 15:25 33.93536 -118.41166 140 ft 4 kts 295°
2026-04-25 15:26 33.93561 -118.41220 139 ft 10 kts 311°
2026-04-25 15:26 33.93626 -118.41260 139 ft 10 kts 348°
2026-04-25 15:26 33.93704 -118.41276 139 ft 11 kts 355°
2026-04-25 15:26 33.93785 -118.41256 139 ft 11 kts
2026-04-25 15:27 33.93837 -118.41206 139 ft 8 kts 68°
2026-04-25 15:27 33.93884 -118.41172 139 ft 9 kts
2026-04-25 15:27 33.93941 -118.41086 139 ft 0 kts 83°
2026-04-25 15:28 33.93941 -118.41082 139 ft 0 kts 83°
2026-04-25 15:28 33.93942 -118.41076 139 ft 1 kts 82°
2026-04-25 15:28 33.93943 -118.41066 139 ft 0 kts 83°
2026-04-25 15:28 33.93943 -118.41065 139 ft 0 kts 83°